Погода в Хара-Алдане

Россия / Республика Саха (Якутия)     63°15′31″N   133°13′35″E
темп.,
°C
ветер,
м/с
пор.,
м/с
влажн.,
%
обл.,
%
осадки,
мм/ч
давл.,
гПа
погр.,
м
28 февраля, вс
вс2800:00−30з008695 0.0 102019
03:00−29зюз018598 0.0 101719
06:00−29св1183100 0.0 101719
09:00−26з1385100 0.0 1016101
12:00−22св0179100 0.0 1017194
15:00−20ю238298 0.0 1018346
18:00−26св119181 0.0 102020
21:00−28юв019466 0.0 102119
1 марта, пн
пн100:00−27з119897 0.0 102228
03:00−28з249898 0.1 1022136
06:00−29зюз1398100 0.1 1023129
09:00−29зюз1296100 0.1 1023215
12:00−26юз1288100 0.1 1023455
15:00−25зюз1286100 0.1 1023640
18:00−27зсз0197100 0.1 102419
21:00−28ююз0099100 0.1 102519
2 марта, вт
вт200:00−29ююз1198100 0.1 102419
03:00−30юз119898 0.1 102519
06:00−31зюз119896 0.0 102519
09:00−31ююз119783 0.1 102544
12:00−27з128779 0.0 1024433
15:00−26з128489 0.0 1024631
18:00−28ссз1198100 0.1 102419
21:00−28юв0099100 0.2 102519
3 марта, ср
ср300:00−29св0099100 0.1 102419
03:00−29с0099100 0.3 102419
06:00−29сз0099100 0.1 102319
09:00−28зсз1196100 0.1 1022128
12:00−26з1188100 0.1 1020463
15:00−26зсз2287100 0.1 1019676
18:00−28зсз1297100 0.1 101820
21:00−28з2498100 0.1 1017169
4 марта, чт
чт400:00−30з2499100 0.1 1016141
03:00−31зюз2498100 0.2 1015185
06:00−32з2498100 0.1 1015119
09:00−31з2496100 0.1 1015288
12:00−29з2492100 0.0 1015449
15:00−28з2490100 0.1 1015524
18:00−32з2297100 0.0 101720
21:00−34з249899 0.0 1018107